,,,PA_Meas_PMT16A,,PR_Meas_QMR101_102,,RH_Meas_QMH101,,SR_Meas_QMS101,,TA_Meas_QMH101,,GenWind,,GenWind,
date,time,status,PA,status,PR,status,RH,status,SR,status,TA,status,DirAvg,status,SpdAvg,
2011-09-25, 00:00:05,VALID,1000.8,VALID,0,VALID,85.4212,VALID,0,VALID,24.6184,VALID,191,VALID,0.128906,
2011-09-25, 00:01:05,VALID,1000.79,VALID,0,VALID,85.6806,VALID,0,VALID,24.6008,VALID,186,VALID,0.476172,
2011-09-25, 00:02:05,VALID,1000.78,VALID,0,VALID,85.6196,VALID,0,VALID,24.5989,VALID,173,VALID,0.824219,
2011-09-25, 00:03:05,VALID,1000.74,VALID,0,VALID,85.5051,VALID,0,VALID,24.6398,VALID,173,VALID,0.55,
2011-09-25, 00:04:05,VALID,1000.74,VALID,0,VALID,85.2992,VALID,0,VALID,24.6575,VALID,173,VALID,0.597656,
2011-09-25, 00:05:05,VALID,1000.7,VALID,0,VALID,85.1466,VALID,0,VALID,24.6789,VALID,173,VALID,0.530469,
2011-09-25, 00:06:05,VALID,1000.69,VALID,0,VALID,85.0169,VALID,0,VALID,24.6965,VALID,173,VALID,0.427734,
2011-09-25, 00:07:05,VALID,1000.68,VALID,0,VALID,84.9024,VALID,0,VALID,24.7374,VALID,173,VALID,0.512109,
2011-09-25, 00:08:05,VALID,1000.64,VALID,0,VALID,84.8643,VALID,0,VALID,24.716,VALID,173,VALID,0.74375,
2011-09-25, 00:09:05,VALID,1000.63,VALID,0,VALID,84.8643,VALID,0,VALID,24.7374,VALID,173,VALID,0.788281,
2011-09-25, 00:10:05,VALID,1000.63,VALID,0,VALID,84.8109,VALID,0,VALID,24.7356,VALID,173,VALID,0.801172,
2011-09-25, 00:11:05,VALID,1000.59,VALID,0,VALID,84.7574,VALID,0,VALID,24.7356,VALID,173,VALID,0.753125,
2011-09-25, 00:12:05,VALID,1000.6,VALID,0,VALID,84.7346,VALID,0,VALID,24.757,VALID,173,VALID,0.896094,
2011-09-25, 00:13:05,VALID,1000.59,VALID,0,VALID,84.6506,VALID,0,VALID,24.7551,VALID,187,VALID,1.17695,
2011-09-25, 00:14:05,VALID,1000.55,VALID,0,VALID,84.5133,VALID,0,VALID,24.796,VALID,187,VALID,0.920703,
2011-09-25, 00:15:05,VALID,1000.54,VALID,0,VALID,84.5362,VALID,0,VALID,24.7551,VALID,187,VALID,0.630859,
2011-09-25, 00:16:05,VALID,1000.52,VALID,0,VALID,84.5591,VALID,0,VALID,24.7356,VALID,153,VALID,0.877344,
2011-09-25, 00:17:05,VALID,1000.53,VALID,0,VALID,84.5209,VALID,0,VALID,24.7551,VALID,155,VALID,0.808984,
2011-09-25, 00:18:05,VALID,1000.49,VALID,0,VALID,84.5438,VALID,0,VALID,24.757,VALID,163,VALID,0.728906,
2011-09-25, 00:19:05,VALID,1000.47,VALID,0,VALID,84.4828,VALID,0,VALID,24.7551,VALID,163,VALID,0.755078,
2011-09-25, 00:20:05,VALID,1000.46,VALID,0,VALID,84.4675,VALID,0,VALID,24.7551,VALID,163,VALID,0.613672,
2011-09-25, 00:21:05,VALID,1000.46,VALID,0,VALID,84.5133,VALID,0,VALID,24.7551,VALID,163,VALID,0.707422,
2011-09-25, 00:22:05,VALID,1000.43,VALID,0,VALID,84.5896,VALID,0,VALID,24.7356,VALID,184,VALID,0.834375,
2011-09-25, 00:23:05,VALID,1000.43,VALID,0,VALID,84.643,VALID,0,VALID,24.7356,VALID,174,VALID,0.810547,
2011-09-25, 00:24:05,VALID,1000.39,VALID,0,VALID,84.6888,VALID,0,VALID,24.6965,VALID,169,VALID,0.616406,
2011-09-25, 00:25:05,VALID,1000.37,VALID,0,VALID,84.7269,VALID,0,VALID,24.6965,VALID,169,VALID,0.557422,
2011-09-25, 00:26:05,VALID,1000.37,VALID,0,VALID,84.7346,VALID,0,VALID,24.6965,VALID,177,VALID,0.588672,
2011-09-25, 00:27:05,VALID,1000.36,VALID,0,VALID,84.7803,VALID,0,VALID,24.6965,VALID,171,VALID,0.206641,
2011-09-25, 00:28:05,VALID,1000.33,VALID,0,VALID,84.9787,VALID,0,VALID,24.6575,VALID,171,VALID,0.121875,
2011-09-25, 00:29:05,VALID,1000.29,VALID,0,VALID,85.5433,VALID,0,VALID,24.5794,VALID,171,VALID,0.11875,
2011-09-25, 00:30:05,VALID,1000.31,VALID,0,VALID,86.1918,VALID,0,VALID,24.4623,VALID,171,VALID,0.126172,
2011-09-25, 00:31:05,VALID,1000.31,VALID,0,VALID,86.8861,VALID,0,VALID,24.3647,VALID,171,VALID,0.151953,
2011-09-25, 00:32:05,VALID,1000.25,VALID,0,VALID,87.382,VALID,0,VALID,24.2671,VALID,171,VALID,0.120703,
2011-09-25, 00:33:05,VALID,1000.26,VALID,0,VALID,87.8551,VALID,0,VALID,24.15,VALID,172,VALID,0.305078,
2011-09-25, 00:34:05,VALID,1000.23,VALID,0,VALID,88.2518,VALID,0,VALID,24.0933,VALID,172,VALID,0.0683594,
2011-09-25, 00:35:05,VALID,1000.22,VALID,0,VALID,88.618,VALID,0,VALID,24.0134,VALID,172,VALID,0.245703,
2011-09-25, 00:36:05,VALID,1000.22,VALID,0,VALID,89.0834,VALID,0,VALID,23.9354,VALID,172,VALID,0.362891,
2011-09-25, 00:37:05,VALID,1000.18,VALID,0,VALID,89.4649,VALID,0,VALID,23.8768,VALID,172,VALID,0.402344,
2011-09-25, 00:38:05,VALID,1000.18,VALID,0,VALID,89.8235,VALID,0,VALID,23.8183,VALID,172,VALID,0.492188,
2011-09-25, 00:39:05,VALID,1000.14,VALID,0,VALID,90.1516,VALID,0,VALID,23.7793,VALID,172,VALID,0.401953,
2011-09-25, 00:40:05,VALID,1000.15,VALID,0,VALID,90.3728,VALID,0,VALID,23.7402,VALID,172,VALID,0.337891,
2011-09-25, 00:41:05,VALID,1000.13,VALID,0,VALID,90.6246,VALID,0,VALID,23.7225,VALID,172,VALID,0.272266,
2011-09-25, 00:42:05,VALID,1000.11,VALID,0,VALID,90.7849,VALID,0,VALID,23.7225,VALID,172,VALID,0.107031,
2011-09-25, 00:43:05,VALID,1000.1,VALID,0,VALID,90.9222,VALID,0,VALID,23.6817,VALID,172,VALID,0,
2011-09-25, 00:44:05,VALID,1000.15,VALID,0,VALID,91.0519,VALID,0,VALID,23.6622,VALID,172,VALID,0.090625,
2011-09-25, 00:45:05,VALID,1000.14,VALID,0,VALID,91.1892,VALID,0,VALID,23.6427,VALID,172,VALID,0.156641,
2011-09-25, 00:46:05,VALID,1000.17,VALID,0,VALID,91.2503,VALID,0,VALID,23.5841,VALID,172,VALID,0.0933594,
2011-09-25, 00:47:05,VALID,1000.15,VALID,0,VALID,91.3723,VALID,0,VALID,23.6054,VALID,172,VALID,0.0441406,
2011-09-25, 00:48:05,VALID,1000.14,VALID,0,VALID,91.4791,VALID,0,VALID,23.5859,VALID,172,VALID,0,
2011-09-25, 00:49:05,VALID,1000.13,VALID,0,VALID,91.5631,VALID,0,VALID,23.5664,VALID,172,VALID,0,
2011-09-25, 00:50:05,VALID,1000.12,VALID,0,VALID,91.6775,VALID,0,VALID,23.5469,VALID,172,VALID,0,
2011-09-25, 00:51:05,VALID,1000.11,VALID,0,VALID,91.7614,VALID,0,VALID,23.5061,VALID,172,VALID,0.259766,
2011-09-25, 00:52:05,VALID,1000.11,VALID,0,VALID,91.7843,VALID,0,VALID,23.4866,VALID,172,VALID,0.448047,
2011-09-25, 00:53:05,VALID,1000.06,VALID,0,VALID,91.9827,VALID,0,VALID,23.4866,VALID,172,VALID,0.411328,
2011-09-25, 00:54:05,VALID,1000.04,VALID,0,VALID,92.0971,VALID,0,VALID,23.4671,VALID,171,VALID,0.580859,
2011-09-25, 00:55:05,VALID,1000.04,VALID,0,VALID,92.2955,VALID,0,VALID,23.4475,VALID,168,VALID,0.509766,
2011-09-25, 00:56:05,VALID,1000.04,VALID,0,VALID,92.4023,VALID,0,VALID,23.4671,VALID,168,VALID,0.581641,
2011-09-25, 00:57:05,VALID,1000.02,VALID,0,VALID,92.5091,VALID,0,VALID,23.4866,VALID,168,VALID,0.560156,
2011-09-25, 00:58:05,VALID,999.992,VALID,0,VALID,92.6083,VALID,0,VALID,23.5079,VALID,168,VALID,0.476172,
2011-09-25, 00:59:05,VALID,1000.01,VALID,0,VALID,92.6465,VALID,0,VALID,23.4866,VALID,168,VALID,0.533984,
2011-09-25, 01:00:05,VALID,999.996,VALID,0,VALID,92.6465,VALID,0,VALID,23.4866,VALID,168,VALID,0.611328,
2011-09-25, 01:01:05,VALID,999.995,VALID,0,VALID,92.6846,VALID,0,VALID,23.4671,VALID,168,VALID,0.607031,
2011-09-25, 01:02:05,VALID,999.995,VALID,0,VALID,92.7228,VALID,0,VALID,23.4688,VALID,152,VALID,0.6375,
2011-09-25, 01:03:05,VALID,999.994,VALID,0,VALID,92.6541,VALID,0,VALID,23.389,VALID,101,VALID,0.622656,
2011-09-25, 01:04:05,VALID,999.992,VALID,0,VALID,92.5778,VALID,0,VALID,23.3695,VALID,101,VALID,0.577344,
2011-09-25, 01:05:05,VALID,999.973,VALID,0,VALID,92.6083,VALID,0,VALID,23.3908,VALID,101,VALID,0.524219,
2011-09-25, 01:06:05,VALID,999.951,VALID,0,VALID,92.6388,VALID,0,VALID,23.3695,VALID,101,VALID,0.382813,
2011-09-25, 01:07:05,VALID,999.958,VALID,0,VALID,92.6465,VALID,0,VALID,23.3713,VALID,101,VALID,0.33125,
2011-09-25, 01:08:05,VALID,999.938,VALID,0,VALID,92.616,VALID,0,VALID,23.311,VALID,101,VALID,0.24375,
2011-09-25, 01:09:05,VALID,999.937,VALID,0,VALID,92.6312,VALID,0,VALID,23.311,VALID,101,VALID,0.225391,
2011-09-25, 01:10:05,VALID,999.891,VALID,0,VALID,92.6388,VALID,0,VALID,23.311,VALID,101,VALID,0.291797,
2011-09-25, 01:11:05,VALID,999.847,VALID,0,VALID,92.6541,VALID,0,VALID,23.2719,VALID,101,VALID,0.271875,
2011-09-25, 01:12:05,VALID,999.846,VALID,0,VALID,92.7075,VALID,0,VALID,23.2719,VALID,101,VALID,0.326562,
2011-09-25, 01:13:05,VALID,999.83,VALID,0,VALID,92.7151,VALID,0,VALID,23.1939,VALID,101,VALID,0.326172,
2011-09-25, 01:14:05,VALID,999.828,VALID,0,VALID,92.7228,VALID,0,VALID,23.1549,VALID,101,VALID,0.387891,
2011-09-25, 01:15:05,VALID,999.829,VALID,0,VALID,92.738,VALID,0,VALID,23.1159,VALID,101,VALID,0.258594,
2011-09-25, 01:16:05,VALID,999.847,VALID,0,VALID,92.7991,VALID,0.112286,VALID,23.0964,VALID,101,VALID,0.307422,
2011-09-25, 01:17:05,VALID,999.836,VALID,0,VALID,92.8983,VALID,0,VALID,23.0964,VALID,101,VALID,0.317187,
2011-09-25, 01:18:05,VALID,999.825,VALID,0,VALID,92.9669,VALID,0,VALID,23.0964,VALID,101,VALID,0.24375,
2011-09-25, 01:19:05,VALID,999.833,VALID,0,VALID,93.0356,VALID,0,VALID,23.0751,VALID,101,VALID,0.370703,
2011-09-25, 01:20:05,VALID,999.807,VALID,0,VALID,93.1119,VALID,0,VALID,23.0964,VALID,101,VALID,0.398438,
2011-09-25, 01:21:05,VALID,999.811,VALID,0,VALID,93.1805,VALID,0,VALID,23.0964,VALID,101,VALID,0.426953,
2011-09-25, 01:22:05,VALID,999.783,VALID,0,VALID,93.2263,VALID,0,VALID,23.1159,VALID,101,VALID,0.536328,
2011-09-25, 01:23:05,VALID,999.788,VALID,0,VALID,93.2568,VALID,0,VALID,23.0964,VALID,101,VALID,0.580469,
2011-09-25, 01:24:05,VALID,999.766,VALID,0,VALID,93.3026,VALID,0,VALID,23.0556,VALID,101,VALID,0.615625,
2011-09-25, 01:25:05,VALID,999.762,VALID,0,VALID,93.3026,VALID,0,VALID,23.0573,VALID,101,VALID,0.616406,
2011-09-25, 01:26:05,VALID,999.727,VALID,0,VALID,93.3026,VALID,0,VALID,23.0378,VALID,101,VALID,0.708594,
2011-09-25, 01:27:05,VALID,999.741,VALID,0,VALID,93.3331,VALID,0,VALID,23.0378,VALID,101,VALID,0.659375,
2011-09-25, 01:28:05,VALID,999.717,VALID,0,VALID,93.3255,VALID,0,VALID,23.0573,VALID,101,VALID,0.542969,
2011-09-25, 01:29:05,VALID,999.734,VALID,0,VALID,93.3637,VALID,0,VALID,23.0573,VALID,101,VALID,0.337109,
2011-09-25, 01:30:05,VALID,999.715,VALID,0,VALID,93.3637,VALID,0,VALID,23.0378,VALID,101,VALID,0.313281,
2011-09-25, 01:31:05,VALID,999.7,VALID,0,VALID,93.3713,VALID,0,VALID,23.0378,VALID,101,VALID,0.312891,
2011-09-25, 01:32:05,VALID,999.726,VALID,0,VALID,93.3866,VALID,0,VALID,23.0361,VALID,101,VALID,0.282813,
2011-09-25, 01:33:05,VALID,999.71,VALID,0,VALID,93.3866,VALID,0,VALID,23.0378,VALID,101,VALID,0.161328,
2011-09-25, 01:34:05,VALID,999.706,VALID,0,VALID,93.3942,VALID,0,VALID,23.0183,VALID,101,VALID,0.0789063,
2011-09-25, 01:35:05,VALID,999.712,VALID,0,VALID,93.3789,VALID,0,VALID,22.9581,VALID,101,VALID,0,
2011-09-25, 01:36:05,VALID,999.704,VALID,0,VALID,93.356,VALID,0,VALID,22.9385,VALID,101,VALID,0,
2011-09-25, 01:37:05,VALID,999.681,VALID,0,VALID,93.3789,VALID,0,VALID,22.9793,VALID,101,VALID,0,
2011-09-25, 01:38:05,VALID,999.66,VALID,0,VALID,93.3942,VALID,0,VALID,22.9793,VALID,101,VALID,0,
2011-09-25, 01:39:05,VALID,999.664,VALID,0,VALID,93.4323,VALID,0,VALID,22.9793,VALID,101,VALID,0,
2011-09-25, 01:40:05,VALID,999.642,VALID,0,VALID,93.4247,VALID,0,VALID,22.9988,VALID,101,VALID,0,
2011-09-25, 01:41:05,VALID,999.657,VALID,0,VALID,93.4781,VALID,0,VALID,22.9988,VALID,101,VALID,0,
2011-09-25, 01:42:05,VALID,999.645,VALID,0,VALID,93.4857,VALID,0,VALID,23.0183,VALID,101,VALID,0.176172,
2011-09-25, 01:43:05,VALID,999.654,VALID,0,VALID,93.4934,VALID,0,VALID,22.9988,VALID,101,VALID,0,
2011-09-25, 01:44:05,VALID,999.644,VALID,0,VALID,93.5086,VALID,0,VALID,22.9776,VALID,101,VALID,0,
2011-09-25, 01:45:05,VALID,999.652,VALID,0,VALID,93.5086,VALID,0,VALID,22.9581,VALID,101,VALID,0,
2011-09-25, 01:46:05,VALID,999.614,VALID,0,VALID,93.5391,VALID,0,VALID,22.9793,VALID,101,VALID,0,
2011-09-25, 01:47:05,VALID,999.636,VALID,0,VALID,93.5239,VALID,0,VALID,22.919,VALID,101,VALID,0,
2011-09-25, 01:48:05,VALID,999.659,VALID,0,VALID,93.5239,VALID,0,VALID,22.9403,VALID,101,VALID,0,
2011-09-25, 01:49:05,VALID,999.642,VALID,0,VALID,93.5391,VALID,0,VALID,22.9208,VALID,101,VALID,0.328906,
2011-09-25, 01:50:05,VALID,999.629,VALID,0,VALID,93.5544,VALID,0,VALID,22.9208,VALID,101,VALID,0.393359,
2011-09-25, 01:51:05,VALID,999.631,VALID,0,VALID,93.5544,VALID,0,VALID,22.9208,VALID,101,VALID,0.444141,
2011-09-25, 01:52:05,VALID,999.612,VALID,0,VALID,93.5544,VALID,0,VALID,22.9208,VALID,101,VALID,0.395312,
2011-09-25, 01:53:05,VALID,999.624,VALID,0,VALID,93.5849,VALID,0,VALID,22.9208,VALID,101,VALID,0.295312,
2011-09-25, 01:54:05,VALID,999.6,VALID,0,VALID,93.6154,VALID,0,VALID,22.9208,VALID,101,VALID,0.178516,
2011-09-25, 01:55:05,VALID,999.587,VALID,0,VALID,93.6231,VALID,0,VALID,22.9013,VALID,101,VALID,0.0980469,
2011-09-25, 01:56:05,VALID,999.601,VALID,0,VALID,93.6154,VALID,0,VALID,22.942,VALID,101,VALID,0.205078,
2011-09-25, 01:57:05,VALID,999.569,VALID,0,VALID,93.6383,VALID,0,VALID,22.9208,VALID,101,VALID,0.136328,
2011-09-25, 01:58:05,VALID,999.54,VALID,0,VALID,93.6383,VALID,0,VALID,22.942,VALID,101,VALID,0.149609,
2011-09-25, 01:59:05,VALID,999.55,VALID,0,VALID,93.6612,VALID,0,VALID,22.9208,VALID,101,VALID,0.0257812,
2011-09-25, 02:00:05,VALID,999.531,VALID,0,VALID,93.6765,VALID,0,VALID,22.9225,VALID,101,VALID,0,
2011-09-25, 02:01:05,VALID,999.54,VALID,0,VALID,93.6536,VALID,0,VALID,22.9225,VALID,101,VALID,0,
2011-09-25, 02:02:05,VALID,999.488,VALID,0,VALID,93.6688,VALID,0,VALID,22.9225,VALID,101,VALID,0,
2011-09-25, 02:03:05,VALID,999.495,VALID,0,VALID,93.6765,VALID,0,VALID,22.9013,VALID,101,VALID,0,
2011-09-25, 02:04:05,VALID,999.496,VALID,0,VALID,93.6841,VALID,0,VALID,22.9225,VALID,101,VALID,0.45,
2011-09-25, 02:05:05,VALID,999.488,VALID,0,VALID,93.6841,VALID,0,VALID,22.903,VALID,101,VALID,0.509766,
2011-09-25, 02:06:05,VALID,999.513,VALID,0,VALID,93.6765,VALID,0,VALID,22.903,VALID,101,VALID,0.545703,
2011-09-25, 02:07:05,VALID,999.513,VALID,0,VALID,93.6917,VALID,0,VALID,22.8623,VALID,101,VALID,0.490234,
2011-09-25, 02:08:05,VALID,999.526,VALID,0,VALID,93.707,VALID,0,VALID,22.864,VALID,101,VALID,0.449219,
2011-09-25, 02:09:05,VALID,999.557,VALID,0,VALID,93.6994,VALID,0,VALID,22.864,VALID,101,VALID,0.313672,
2011-09-25, 02:10:05,VALID,999.53,VALID,0,VALID,93.707,VALID,0,VALID,22.8623,VALID,101,VALID,0.207031,
2011-09-25, 02:11:05,VALID,999.564,VALID,0,VALID,93.7146,VALID,0,VALID,22.8215,VALID,101,VALID,0.145703,
2011-09-25, 02:12:05,VALID,999.547,VALID,0,VALID,93.7223,VALID,0,VALID,22.8427,VALID,101,VALID,0,
2011-09-25, 02:13:05,VALID,999.533,VALID,0,VALID,93.7299,VALID,0,VALID,22.8215,VALID,101,VALID,0,
2011-09-25, 02:14:05,VALID,999.523,VALID,0,VALID,93.7451,VALID,0,VALID,22.8215,VALID,101,VALID,0,
2011-09-25, 02:15:05,VALID,999.505,VALID,0,VALID,93.7604,VALID,0,VALID,22.8232,VALID,101,VALID,0,
2011-09-25, 02:16:05,VALID,999.47,VALID,0,VALID,93.7528,VALID,0,VALID,22.7825,VALID,101,VALID,0,
2011-09-25, 02:17:05,VALID,999.497,VALID,0,VALID,93.7757,VALID,0,VALID,22.7825,VALID,101,VALID,0.317969,
2011-09-25, 02:18:05,VALID,999.485,VALID,0,VALID,93.7757,VALID,0,VALID,22.7825,VALID,101,VALID,0.397656,
2011-09-25, 02:19:05,VALID,999.489,VALID,0,VALID,93.7757,VALID,0,VALID,22.763,VALID,101,VALID,0.417578,
2011-09-25, 02:20:05,VALID,999.479,VALID,0,VALID,93.7757,VALID,0,VALID,22.7842,VALID,101,VALID,0.373437,
2011-09-25, 02:21:05,VALID,999.472,VALID,0,VALID,93.7985,VALID,0,VALID,22.7647,VALID,101,VALID,0.250781,
2011-09-25, 02:22:05,VALID,999.517,VALID,0,VALID,93.8214,VALID,0,VALID,22.7257,VALID,101,VALID,0.227734,
2011-09-25, 02:23:05,VALID,999.507,VALID,0,VALID,93.8291,VALID,0,VALID,22.7062,VALID,101,VALID,0.221094,
2011-09-25, 02:24:05,VALID,999.549,VALID,0,VALID,93.8367,VALID,0,VALID,22.7257,VALID,101,VALID,0.246875,
2011-09-25, 02:25:05,VALID,999.54,VALID,0,VALID,93.8367,VALID,0,VALID,22.7079,VALID,101,VALID,0,
2011-09-25, 02:26:05,VALID,999.57,VALID,0,VALID,93.8748,VALID,0,VALID,22.6494,VALID,101,VALID,0,
2011-09-25, 02:27:05,VALID,999.532,VALID,0,VALID,93.8596,VALID,0,VALID,22.6104,VALID,101,VALID,0.121875,
2011-09-25, 02:28:05,VALID,999.517,VALID,0,VALID,93.8596,VALID,0,VALID,22.5909,VALID,101,VALID,0.233203,
2011-09-25, 02:29:05,VALID,999.507,VALID,0,VALID,93.8443,VALID,0,VALID,22.5892,VALID,101,VALID,0.256641,
2011-09-25, 02:30:05,VALID,999.515,VALID,0,VALID,93.8672,VALID,0,VALID,22.6299,VALID,101,VALID,0,
2011-09-25, 02:31:05,VALID,999.517,VALID,0,VALID,93.8901,VALID,0,VALID,22.6104,VALID,101,VALID,0,
2011-09-25, 02:32:05,VALID,999.523,VALID,0,VALID,93.913,VALID,0,VALID,22.5306,VALID,101,VALID,0,
2011-09-25, 02:33:05,VALID,999.509,VALID,0,VALID,93.913,VALID,0,VALID,22.4933,VALID,101,VALID,0,
2011-09-25, 02:34:05,VALID,999.511,VALID,0,VALID,93.9359,VALID,0,VALID,22.4543,VALID,101,VALID,0,
2011-09-25, 02:35:05,VALID,999.534,VALID,0,VALID,93.9283,VALID,0,VALID,22.4543,VALID,101,VALID,0,
2011-09-25, 02:36:05,VALID,999.552,VALID,0,VALID,93.9435,VALID,0,VALID,22.4526,VALID,101,VALID,0.24375,
2011-09-25, 02:37:04,VALID,999.531,VALID,0,VALID,93.9283,VALID,0,VALID,22.495,VALID,101,VALID,0.0546875,
2011-09-25, 02:38:04,VALID,999.548,VALID,0,VALID,93.9511,VALID,0,VALID,22.4543,VALID,101,VALID,0,
2011-09-25, 02:39:04,VALID,999.547,VALID,0,VALID,93.9511,VALID,0,VALID,22.4153,VALID,101,VALID,0,
2011-09-25, 02:40:04,VALID,999.538,VALID,0,VALID,93.974,VALID,0,VALID,22.3941,VALID,101,VALID,0,
2011-09-25, 02:41:04,VALID,999.548,VALID,0,VALID,93.9893,VALID,0,VALID,22.3746,VALID,101,VALID,0,
2011-09-25, 02:42:04,VALID,999.549,VALID,0,VALID,93.9969,VALID,0,VALID,22.3941,VALID,101,VALID,0,
2011-09-25, 02:43:04,VALID,999.579,VALID,0,VALID,93.9969,VALID,0.112286,VALID,22.3729,VALID,101,VALID,0.360156,
2011-09-25, 02:44:04,VALID,999.592,VALID,0,VALID,93.9893,VALID,0,VALID,22.3551,VALID,101,VALID,0.331641,
2011-09-25, 02:45:04,VALID,999.59,VALID,0,VALID,94.0198,VALID,0,VALID,22.3339,VALID,101,VALID,0,
2011-09-25, 02:46:04,VALID,999.617,VALID,0,VALID,93.9969,VALID,0,VALID,22.3746,VALID,101,VALID,0,
2011-09-25, 02:47:04,VALID,999.601,VALID,0,VALID,94.0274,VALID,0,VALID,22.3551,VALID,101,VALID,0,
2011-09-25, 02:48:04,VALID,999.617,VALID,0,VALID,94.0274,VALID,0,VALID,22.3746,VALID,101,VALID,0,
2011-09-25, 02:49:04,VALID,999.588,VALID,0,VALID,94.0503,VALID,0,VALID,22.3746,VALID,101,VALID,0,
2011-09-25, 02:50:04,VALID,999.586,VALID,0,VALID,94.058,VALID,0,VALID,22.3551,VALID,101,VALID,0,
2011-09-25, 02:51:04,VALID,999.594,VALID,0,VALID,94.0656,VALID,0,VALID,22.3339,VALID,101,VALID,0,
2011-09-25, 02:52:04,VALID,999.606,VALID,0,VALID,94.058,VALID,0,VALID,22.3144,VALID,101,VALID,0,
2011-09-25, 02:53:04,VALID,999.608,VALID,0,VALID,94.058,VALID,0.112286,VALID,22.3356,VALID,101,VALID,0,
2011-09-25, 02:54:04,VALID,999.584,VALID,0,VALID,94.0808,VALID,0,VALID,22.3144,VALID,101,VALID,0,
2011-09-25, 02:55:04,VALID,999.563,VALID,0,VALID,94.0656,VALID,0,VALID,22.3356,VALID,101,VALID,0,
2011-09-25, 02:56:04,VALID,999.581,VALID,0,VALID,94.0808,VALID,0,VALID,22.3161,VALID,101,VALID,0,
2011-09-25, 02:57:04,VALID,999.548,VALID,0,VALID,94.0885,VALID,0,VALID,22.3161,VALID,101,VALID,0,
2011-09-25, 02:58:04,VALID,999.52,VALID,0,VALID,94.0656,VALID,0,VALID,22.2966,VALID,101,VALID,0,
2011-09-25, 02:59:04,VALID,999.546,VALID,0,VALID,94.0885,VALID,0,VALID,22.3161,VALID,101,VALID,0,
2011-09-25, 03:00:04,VALID,999.531,VALID,0,VALID,94.1037,VALID,0,VALID,22.2949,VALID,101,VALID,0,
2011-09-25, 03:01:04,VALID,999.529,VALID,0,VALID,94.1114,VALID,0,VALID,22.3161,VALID,101,VALID,0,
2011-09-25, 03:02:04,VALID,999.527,VALID,0,VALID,94.1114,VALID,0,VALID,22.3161,VALID,101,VALID,0,
2011-09-25, 03:03:04,VALID,999.539,VALID,0,VALID,94.0885,VALID,0,VALID,22.3356,VALID,101,VALID,0,
2011-09-25, 03:04:04,VALID,999.544,VALID,0,VALID,94.1037,VALID,0,VALID,22.3144,VALID,101,VALID,0,
2011-09-25, 03:05:04,VALID,999.542,VALID,0,VALID,94.0961,VALID,0,VALID,22.3161,VALID,101,VALID,0,
2011-09-25, 03:06:04,VALID,999.551,VALID,0,VALID,94.119,VALID,0,VALID,22.3161,VALID,101,VALID,0,
2011-09-25, 03:07:04,VALID,999.537,VALID,0,VALID,94.1037,VALID,0,VALID,22.3161,VALID,101,VALID,0,
2011-09-25, 03:08:04,VALID,999.52,VALID,0,VALID,94.119,VALID,0,VALID,22.3161,VALID,101,VALID,0,
2011-09-25, 03:09:04,VALID,999.498,VALID,0,VALID,94.1343,VALID,0,VALID,22.2966,VALID,101,VALID,0,
2011-09-25, 03:10:04,VALID,999.535,VALID,0,VALID,94.1419,VALID,0,VALID,22.2771,VALID,101,VALID,0,
2011-09-25, 03:11:04,VALID,999.528,VALID,0,VALID,94.1343,VALID,0,VALID,22.2771,VALID,101,VALID,0,
2011-09-25, 03:12:04,VALID,999.556,VALID,0,VALID,94.1343,VALID,0,VALID,22.3144,VALID,101,VALID,0,
2011-09-25, 03:13:04,VALID,999.563,VALID,0,VALID,94.1266,VALID,0,VALID,22.3144,VALID,101,VALID,0,
2011-09-25, 03:14:04,VALID,999.535,VALID,0,VALID,94.1343,VALID,0,VALID,22.2949,VALID,101,VALID,0,
2011-09-25, 03:15:04,VALID,999.55,VALID,0,VALID,94.1495,VALID,0,VALID,22.3144,VALID,101,VALID,0,
2011-09-25, 03:16:04,VALID,999.533,VALID,0,VALID,94.1495,VALID,0,VALID,22.3356,VALID,101,VALID,0,
2011-09-25, 03:17:04,VALID,999.555,VALID,0,VALID,94.1571,VALID,0,VALID,22.2966,VALID,101,VALID,0,
2011-09-25, 03:18:04,VALID,999.556,VALID,0,VALID,94.1495,VALID,0,VALID,22.2966,VALID,101,VALID,0,
2011-09-25, 03:19:04,VALID,999.564,VALID,0,VALID,94.1495,VALID,0,VALID,22.3161,VALID,101,VALID,0,
2011-09-25, 03:20:04,VALID,999.58,VALID,0,VALID,94.1571,VALID,0,VALID,22.2966,VALID,101,VALID,0,
2011-09-25, 03:21:04,VALID,999.577,VALID,0,VALID,94.18,VALID,0,VALID,22.3161,VALID,101,VALID,0,
2011-09-25, 03:22:04,VALID,999.559,VALID,0,VALID,94.1571,VALID,0,VALID,22.2966,VALID,101,VALID,0,
2011-09-25, 03:23:04,VALID,999.533,VALID,0,VALID,94.1648,VALID,0,VALID,22.2754,VALID,101,VALID,0,
2011-09-25, 03:24:04,VALID,999.551,VALID,0,VALID,94.1648,VALID,0,VALID,22.2966,VALID,101,VALID,0,
2011-09-25, 03:25:04,VALID,999.587,VALID,0,VALID,94.1571,VALID,0,VALID,22.2576,VALID,101,VALID,0,
2011-09-25, 03:26:04,VALID,999.572,VALID,0,VALID,94.1877,VALID,0.112286,VALID,22.2186,VALID,101,VALID,0,
2011-09-25, 03:27:04,VALID,999.589,VALID,0,VALID,94.1724,VALID,0,VALID,22.1795,VALID,101,VALID,0,
2011-09-25, 03:28:04,VALID,999.577,VALID,0,VALID,94.1877,VALID,0,VALID,22.1405,VALID,101,VALID,0,
2011-09-25, 03:29:04,VALID,999.592,VALID,0,VALID,94.1953,VALID,0.112286,VALID,22.1795,VALID,101,VALID,0,
2011-09-25, 03:30:04,VALID,999.577,VALID,0,VALID,94.18,VALID,0,VALID,22.1389,VALID,101,VALID,0,
2011-09-25, 03:31:04,VALID,999.596,VALID,0,VALID,94.1953,VALID,0.112286,VALID,22.1584,VALID,101,VALID,0,
2011-09-25, 03:32:04,VALID,999.58,VALID,0,VALID,94.1953,VALID,0,VALID,22.121,VALID,101,VALID,0,
2011-09-25, 03:33:04,VALID,999.593,VALID,0,VALID,94.1953,VALID,0,VALID,22.1015,VALID,101,VALID,0,
2011-09-25, 03:34:04,VALID,999.591,VALID,0,VALID,94.2182,VALID,0,VALID,22.0625,VALID,101,VALID,0,
2011-09-25, 03:35:04,VALID,999.588,VALID,0,VALID,94.2029,VALID,0,VALID,22.0235,VALID,101,VALID,0,
2011-09-25, 03:36:04,VALID,999.584,VALID,0,VALID,94.2029,VALID,0.112286,VALID,22.004,VALID,101,VALID,0,
2011-09-25, 03:37:04,VALID,999.566,VALID,0,VALID,94.2029,VALID,0,VALID,22.004,VALID,101,VALID,0,
2011-09-25, 03:38:04,VALID,999.589,VALID,0,VALID,94.1877,VALID,0,VALID,22.004,VALID,101,VALID,0,
2011-09-25, 03:39:04,VALID,999.553,VALID,0,VALID,94.18,VALID,0.112286,VALID,22.0235,VALID,101,VALID,0,
2011-09-25, 03:40:04,VALID,999.572,VALID,0,VALID,94.18,VALID,0,VALID,22.004,VALID,101,VALID,0,
2011-09-25, 03:41:04,VALID,999.594,VALID,0,VALID,94.1953,VALID,0,VALID,22.004,VALID,101,VALID,0,
2011-09-25, 03:42:04,VALID,999.597,VALID,0,VALID,94.1877,VALID,0,VALID,22.004,VALID,101,VALID,0,
2011-09-25, 03:43:04,VALID,999.587,VALID,0,VALID,94.1877,VALID,0,VALID,21.9845,VALID,101,VALID,0,
2011-09-25, 03:44:04,VALID,999.614,VALID,0,VALID,94.1724,VALID,0,VALID,21.9633,VALID,101,VALID,0,
2011-09-25, 03:45:04,VALID,999.622,VALID,0,VALID,94.2029,VALID,0,VALID,21.965,VALID,101,VALID,0,
2011-09-25, 03:46:04,VALID,999.629,VALID,0,VALID,94.1877,VALID,0,VALID,21.9845,VALID,101,VALID,0,
2011-09-25, 03:47:04,VALID,999.621,VALID,0,VALID,94.1877,VALID,0,VALID,22.004,VALID,101,VALID,0,
2011-09-25, 03:48:04,VALID,999.64,VALID,0,VALID,94.1571,VALID,0,VALID,22.0235,VALID,101,VALID,0,
2011-09-25, 03:49:04,VALID,999.658,VALID,0,VALID,94.1724,VALID,0,VALID,22.043,VALID,101,VALID,0,
2011-09-25, 03:50:04,VALID,999.633,VALID,0,VALID,94.1648,VALID,0,VALID,22.0413,VALID,101,VALID,0,